DW1774 Weather Reports


time (UTC)temp
C
wind
direction
speed
KPH
gust
KPH
rain 1hr
cm
rain 24hr
cm
rain mn
cm
humidity
%
barometer
mb
20260506131904 25 180 0.0 3.2 0.00 0.00 0.00 90 1009.9
20260506131404 25 181 1.6 4.8 0.00 0.00 0.00 90 1009.8
20260506125904 25 181 1.6 11.3 0.00 0.00 0.00 90 1009.9
20260506125404 25 185 3.2 11.3 0.00 0.00 0.00 90 1009.8
20260506124904 25 163 4.8 11.3 0.00 0.00 0.00 90 1009.7
20260506124405 25 187 1.6 9.7 0.00 0.00 0.00 90 1009.7
20260506123904 25 190 1.6 9.7 0.00 0.00 0.00 90 1009.6
20260506123405 25 191 3.2 9.7 0.00 0.00 0.00 90 1009.5
20260506122904 24 178 3.2 9.7 0.00 0.00 0.00 90 1009.5
20260506122404 24 182 3.2 11.3 0.00 0.00 0.00 90 1009.5
20260506121904 24 184 4.8 11.3 0.00 0.00 0.00 90 1009.5
20260506120904 24 200 1.6 9.7 0.00 0.00 0.00 90 1009.4
20260506120405 24 183 4.8 11.3 0.00 0.00 0.00 90 1009.3
20260506115904 24 181 6.4 14.5 0.00 0.00 0.00 90 1009.2
20260506115404 24 184 4.8 14.5 0.00 0.00 0.00 90 1009.1
20260506114404 24 185 3.2 9.7 0.00 0.00 0.00 89 1009.0
20260506113904 24 177 3.2 9.7 0.00 0.00 0.00 89 1008.8
20260506113404 24 176 3.2 9.7 0.00 0.00 0.00 89 1008.8
20260506112904 24 187 4.8 11.3 0.00 0.00 0.00 89 1008.7
20260506112404 24 155 3.2 11.3 0.00 0.00 0.00 89 1008.7
20260506111904 24 163 3.2 9.7 0.00 0.00 0.00 89 1008.6
20260506111404 24 182 1.6 9.7 0.00 0.00 0.00 89 1008.5
20260506110903 24 184 4.8 9.7 0.00 0.00 0.00 89 1008.5
20260506105404 24 175 0.0 4.8 0.00 0.00 0.00 89 1008.6
20260506104905 24 174 1.6 12.9 0.00 0.00 0.00 89 1008.7
20260506104405 24 173 3.2 12.9 0.00 0.00 0.00 88 1008.7
20260506103404 24 156 1.6 3.2 0.00 0.00 0.00 88 1008.8
20260506102904 24 156 0.0 4.8 0.00 0.00 0.00 88 1008.7
20260506102404 24 155 0.0 4.8 0.00 0.00 0.00 88 1008.7
20260506101905 24 156 0.0 4.8 0.00 0.00 0.00 88 1008.7
20260506101404 24 156 3.2 11.3 0.00 0.00 0.00 88 1008.6
20260506100904 24 154 3.2 11.3 0.00 0.00 0.00 88 1008.4
20260506100404 24 173 3.2 8.0 0.00 0.00 0.00 88 1008.4
20260506095904 24 175 1.6 4.8 0.00 0.00 0.00 88 1008.5
20260506094905 24 172 1.6 3.2 0.00 0.00 0.00 87 1008.3
20260506094404 24 172 0.0 4.8 0.00 0.00 0.00 87 1008.4
20260506093903 24 172 0.0 4.8 0.00 0.00 0.00 87 1008.4
20260506092904 25 169 0.0 4.8 0.00 0.00 0.00 87 1008.5
20260506092404 25 169 1.6 8.0 0.00 0.00 0.00 87 1008.5
20260506091904 25 169 1.6 8.0 0.00 0.00 0.00 87 1008.5
20260506090404 25 176 0.0 8.0 0.00 0.00 0.00 87 1008.6
20260506085904 25 173 3.2 8.0 0.00 0.00 0.00 87 1008.5
20260506083905 25 178 4.8 9.7 0.00 0.00 0.00 87 1008.8
20260506082904 25 184 1.6 11.3 0.00 0.00 0.00 87 1008.9
20260506082404 25 173 3.2 12.9 0.00 0.00 0.00 87 1008.7
20260506081904 25 181 4.8 12.9 0.00 0.00 0.00 86 1008.7
20260506081404 25 147 4.8 11.3 0.00 0.00 0.00 86 1008.8
20260506080405 25 187 4.8 11.3 0.00 0.00 0.00 86 1008.9
20260506073404 25 186 4.8 12.9 0.00 0.00 0.00 86 1009.3
20260506072904 25 191 1.6 14.5 0.00 0.00 0.00 86 1009.4
20260506072404 25 173 6.4 14.5 0.00 0.00 0.00 86 1009.5
20260506071904 25 213 4.8 11.3 0.00 0.00 0.00 86 1009.5
20260506071403 25 210 3.2 14.5 0.00 0.00 0.00 86 1009.4
20260506070904 25 191 3.2 14.5 0.00 0.00 0.00 86 1009.5
20260506062404 25 191 4.8 12.9 0.00 0.00 0.00 86 1009.5
20260506061404 25 179 6.4 19.3 0.00 0.00 0.00 85 1009.4
20260506060904 25 166 9.7 19.3 0.00 0.00 0.00 85 1009.3
20260506060404 25 178 3.2 12.9 0.00 0.00 0.00 85 1009.4
20260506051404 25 8 1.6 4.8 0.00 0.00 0.00 85 1009.6
20260506044904 25 137 3.2 11.3 0.00 0.00 0.00 85 1009.7
20260506044403 25 176 6.4 16.1 0.00 0.00 0.00 85 1009.6
20260506043904 25 213 4.8 16.1 0.00 0.00 0.00 85 1009.5
20260506043405 25 174 8.0 12.9 0.00 0.00 0.00 85 1009.4
20260506042905 25 158 4.8 14.5 0.00 0.00 0.00 85 1009.4
20260506042403 25 179 4.8 19.3 0.00 0.00 0.00 84 1009.4
20260506041905 25 180 8.0 22.5 0.00 0.00 0.00 84 1009.5
20260506041404 25 165 6.4 22.5 0.00 0.00 0.00 84 1009.5
20260506040904 25 157 6.4 22.5 0.00 0.00 0.00 84 1009.4
20260506040403 25 175 9.7 20.9 0.00 0.00 0.00 84 1009.2
20260506035903 25 165 8.0 20.9 0.00 0.00 0.00 84 1009.2
20260506035404 25 150 3.2 19.3 0.00 0.00 0.00 84 1009.3
20260506034904 25 159 8.0 22.5 0.00 0.00 0.00 84 1009.4
20260506034404 25 168 9.7 22.5 0.00 0.00 0.00 84 1009.3
20260506033904 25 170 8.0 22.5 0.00 0.00 0.00 84 1009.3
20260506033405 25 175 9.7 25.7 0.00 0.00 0.00 84 1009.2
20260506032904 25 187 11.3 25.7 0.00 0.00 0.00 84 1009.1
20260506032404 25 157 8.0 25.7 0.00 0.00 0.00 84 1009.1
20260506031904 25 175 9.7 22.5 0.00 0.00 0.00 84 1009.2
20260506031405 25 213 8.0 12.9 0.00 0.00 0.00 84 1009.1
20260506030904 25 175 6.4 19.3 0.00 0.00 0.00 84 1009.1
20260506030404 25 187 6.4 19.3 0.00 0.00 0.00 84 1009.1
20260506025904 25 181 6.4 19.3 0.00 0.00 0.00 84 1009.0
20260506024904 25 163 6.4 14.5 0.00 0.00 0.00 84 1008.8
20260506024404 25 167 3.2 14.5 0.00 0.00 0.00 84 1008.9
20260506023905 25 167 4.8 14.5 0.00 0.00 0.00 84 1008.7
20260506023404 25 167 6.4 19.3 0.00 0.00 0.00 84 1008.6
20260506022904 25 173 4.8 19.3 0.00 0.00 0.00 84 1008.6
20260506022404 25 182 4.8 19.3 0.00 0.00 0.00 84 1008.6
20260506021904 25 153 1.6 19.3 0.00 0.00 0.00 83 1008.4
20260506020905 25 160 3.2 20.9 0.00 0.00 0.00 83 1008.3
20260506015905 25 167 4.8 19.3 0.00 0.00 0.00 82 1008.1
20260506015403 25 188 6.4 14.5 0.00 0.00 0.00 82 1008.1
20260506014404 25 188 4.8 19.3 0.00 0.00 0.00 82 1007.9
20260506013903 25 170 6.4 16.1 0.00 0.00 0.00 81 1007.9
20260506013404 25 170 6.4 19.3 0.00 0.00 0.00 81 1007.9
20260506012904 26 172 6.4 19.3 0.00 0.00 0.00 81 1007.8
20260506012405 26 190 6.4 19.3 0.00 0.00 0.00 81 1007.8
20260506011404 26 180 8.0 19.3 0.00 0.00 0.00 81 1007.7
20260506010904 26 201 3.2 19.3 0.00 0.00 0.00 81 1007.5
20260506010404 26 181 8.0 16.1 0.00 0.00 0.00 80 1007.5
20260506005905 26 183 8.0 19.3 0.00 0.00 0.00 80 1007.4
20260506005404 26 176 9.7 19.3 0.00 0.00 0.00 80 1007.4
20260506004904 26 158 8.0 19.3 0.00 0.00 0.00 80 1007.3
20260506004404 26 190 4.8 25.7 0.00 0.00 0.00 80 1007.3
20260506003904 26 175 11.3 25.7 0.00 0.00 0.00 79 1007.3
20260506003404 26 172 6.4 14.5 0.00 0.00 0.00 79 1007.3
20260506002905 26 190 4.8 12.9 0.00 0.00 0.00 79 1007.3
20260506002404 26 184 8.0 14.5 0.00 0.00 0.00 79 1007.3
20260506001903 26 154 4.8 19.3 0.00 0.00 0.00 79 1007.2
20260506001405 26 181 6.4 19.3 0.00 0.00 0.00 79 1007.1
20260506000904 26 193 9.7 20.9 0.00 0.00 0.00 78 1007.1
20260505235904 26 180 9.7 19.3 0.00 0.00 0.00 78 1007.3
20260505234905 26 182 6.4 27.4 0.00 0.00 0.00 78 1007.2
20260505234405 26 182 11.3 27.4 0.00 0.00 0.00 78 1007.2
20260505233404 27 161 4.8 19.3 0.00 0.00 0.00 77 1007.3
20260505232905 27 205 8.0 20.9 0.00 0.00 0.00 77 1007.4
20260505232404 27 178 8.0 29.0 0.00 0.00 0.00 77 1007.3
20260505231404 27 180 9.7 27.4 0.00 0.00 0.00 76 1007.2
20260505230404 27 196 9.7 25.7 0.00 0.00 0.00 76 1007.3
20260505225904 27 198 8.0 24.1 0.00 0.00 0.00 76 1007.4
20260505225404 27 200 9.7 20.9 0.00 0.00 0.00 76 1007.3
20260505224904 27 175 8.0 19.3 0.00 0.00 0.00 76 1007.3
20260505223905 27 173 12.9 22.5 0.00 0.00 0.00 76 1007.3
20260505223405 27 175 11.3 22.5 0.00 0.00 0.00 76 1007.3
20260505222904 27 153 9.7 25.7 0.00 0.00 0.00 77 1007.4
20260505221904 27 197 9.7 27.4 0.00 0.00 0.00 76 1007.4
20260505221405 27 191 11.3 27.4 0.00 0.00 0.00 76 1007.5
20260505220404 27 198 4.8 19.3 0.00 0.00 0.00 76 1007.4
20260505215405 27 207 8.0 22.5 0.00 0.00 0.00 76 1007.6
20260505214904 27 174 12.9 22.5 0.00 0.00 0.00 76 1007.7
20260505214404 27 200 9.7 19.3 0.00 0.00 0.00 76 1007.7
20260505213904 27 156 6.4 20.9 0.00 0.00 0.00 76 1007.8
20260505213404 27 188 11.3 24.1 0.00 0.00 0.00 76 1007.8
20260505211904 27 178 9.7 22.5 0.00 0.00 0.00 76 1007.9
20260505211404 27 186 4.8 32.2 0.00 0.00 0.00 76 1008.0
20260505210904 27 178 11.3 32.2 0.00 0.00 0.00 75 1008.1
20260505210404 28 195 11.3 24.1 0.00 0.00 0.00 75 1008.0
20260505205905 28 198 8.0 19.3 0.00 0.00 0.00 76 1008.0
20260505205404 28 205 8.0 19.3 0.00 0.00 0.00 75 1008.1
20260505204905 28 213 8.0 20.9 0.00 0.00 0.00 75 1008.3
20260505203904 28 185 8.0 24.1 0.00 0.00 0.00 76 1008.4
20260505203405 27 205 9.7 24.1 0.00 0.00 0.00 76 1008.5
20260505202904 27 187 9.7 24.1 0.00 0.00 0.00 76 1008.6
20260505202404 27 161 6.4 24.1 0.00 0.00 0.00 76 1008.6
20260505201405 28 193 8.0 24.1 0.00 0.00 0.00 76 1008.7
20260505195404 28 206 6.4 20.9 0.00 0.00 0.00 77 1008.8
20260505194904 27 181 12.9 20.9 0.00 0.00 0.00 76 1008.8
20260505194405 27 189 9.7 20.9 0.00 0.00 0.00 76 1008.9
20260505193404 27 176 6.4 19.3 0.00 0.00 0.00 78 1009.0
20260505192904 27 198 4.8 11.3 0.00 0.00 0.00 79 1008.9
20260505191904 27 188 3.2 19.3 0.00 0.00 0.00 80 1009.1
20260505191403 27 206 9.7 19.3 0.00 0.00 0.00 79 1009.2
20260505190404 27 192 8.0 19.3 0.00 0.00 0.00 80 1009.2
20260505185904 26 169 8.0 24.1 0.00 0.00 0.00 80 1009.2
20260505185404 26 207 4.8 24.1 0.00 0.00 0.00 80 1009.2
20260505184904 26 184 8.0 16.1 0.00 0.00 0.00 81 1009.2
20260505183904 26 192 8.0 14.5 0.00 0.00 0.00 81 1009.4
20260505183404 26 181 3.2 14.5 0.00 0.00 0.00 81 1009.5
20260505182903 26 184 8.0 19.3 0.00 0.00 0.00 80 1009.5
20260505182405 26 187 6.4 19.3 0.00 0.00 0.00 80 1009.5
20260505181903 27 173 4.8 19.3 0.00 0.00 0.00 79 1009.5
20260505181404 27 163 6.4 19.3 0.00 0.00 0.00 78 1009.5
20260505180904 27 139 4.8 14.5 0.00 0.00 0.00 78 1009.5
20260505180404 27 163 3.2 22.5 0.00 0.00 0.00 79 1009.5
20260505175905 26 193 9.7 22.5 0.00 0.00 0.00 79 1009.6
20260505175404 26 197 11.3 20.9 0.00 0.00 0.00 79 1009.6
20260505174905 26 178 9.7 22.5 0.00 0.00 0.00 79 1009.6
20260505174404 26 196 8.0 22.5 0.00 0.00 0.00 80 1009.7
20260505173905 26 203 8.0 16.1 0.00 0.00 0.00 79 1009.7
20260505173404 26 190 8.0 16.1 0.00 0.00 0.00 79 1009.7
20260505172905 26 172 4.8 16.1 0.00 0.00 0.00 79 1009.7
20260505172405 26 194 4.8 20.9 0.00 0.00 0.00 80 1009.8
20260505171904 26 195 4.8 20.9 0.00 0.00 0.00 80 1009.9
20260505171404 26 180 4.8 19.3 0.00 0.00 0.00 80 1009.9
20260505170904 26 218 4.8 19.3 0.00 0.00 0.00 80 1009.9
20260505170404 26 191 8.0 22.5 0.00 0.00 0.00 80 1010.0
20260505165904 26 190 9.7 22.5 0.00 0.00 0.00 80 1010.0
20260505165404 26 208 8.0 19.3 0.00 0.00 0.00 79 1009.9
20260505164904 26 180 8.0 19.3 0.00 0.00 0.00 79 1009.8
20260505164404 26 205 6.4 16.1 0.00 0.00 0.00 78 1009.8
20260505163405 26 201 3.2 12.9 0.00 0.00 0.00 78 1009.8
20260505162905 26 159 4.8 19.3 0.00 0.00 0.00 79 1009.8
20260505162404 26 209 8.0 19.3 0.00 0.00 0.00 78 1009.8
20260505161906 26 203 3.2 20.9 0.00 0.00 0.00 78 1009.8
20260505161403 26 207 8.0 20.9 0.00 0.00 0.00 78 1009.8
20260505160905 26 217 4.8 16.1 0.00 0.00 0.00 77 1009.8
20260505160404 26 181 4.8 19.3 0.00 0.00 0.00 77 1009.7
20260505152904 26 202 8.0 19.3 0.00 0.00 0.00 76 1009.5
20260505152404 26 191 8.0 19.3 0.00 0.00 0.00 77 1009.5
20260505151904 26 220 8.0 22.5 0.00 0.00 0.00 77 1009.4
20260505151404 26 174 8.0 25.7 0.00 0.00 0.00 77 1009.3
20260505150905 26 182 11.3 25.7 0.00 0.00 0.00 81 1009.3
20260505150404 26 170 8.0 20.9 0.00 0.00 0.00 83 1009.4
20260505140404 25 202 4.8 19.3 0.00 0.00 0.00 82 1009.6